User: anonymous   Login
Location: *
(46.1200°N, 11.2700°E)
Time: 04:26:59
(UTC+00:00)
Language:

Cosmos 1354 Rocket - Orbit

View from above orbital plane
View from above orbital plane
View from above satellite
View from above satellite

Ground track
Ground track

The orbit data is extracted from the following two-line orbital elements,

1 13149U 82037B   21127.83875655 -.00000014  00000-0  43992-5 0  9996
2 13149  74.0407 169.1819 0012690  19.6340 340.5298 14.35396890 41473
Epoch (UTC): 07 May 2021 20:07:48
Eccentricity: 0.0012690
inclination: 74.0407°
perigee height: 764 km
apogee height: 783 km
right ascension of ascending node: 169.1819°
argument of perigee: 19.6340°
revolutions per day: 14.35396890
mean anomaly at epoch: 340.5298°
orbit number at epoch: 4147

The dashed part of the orbit path shows where the satellite is in the earth's shadow,  

DLR